This is the latest recevied weather packets stored in our database for station/object KD5FHA. If no packets are shown the sender has not sent any weather packets the latest 10 day(s).
| Time | Temp. | Humidity | Pressure | Rain* | Wind** | Luminosity | Snow |
|---|---|---|---|---|---|---|---|
| 1777796237 | 12.22° C | 83% | 1020.6 hPa | 0 mm | - | 0 W/m² | - |
| 1777795934 | 12.22° C | 82% | 1020.6 hPa | 0 mm | - | 0 W/m² | - |
| 1777795630 | 12.22° C | 81% | 1020.7 hPa | 0 mm | - | 0 W/m² | - |
| 1777795327 | 12.22° C | 81% | 1020.5 hPa | 0 mm | - | 0 W/m² | - |
| 1777795024 | 12.78° C | 82% | 1020.7 hPa | 0 mm | - | 0 W/m² | - |
| 1777794720 | 12.78° C | 81% | 1020.8 hPa | 0 mm | - | 0 W/m² | - |
| 1777794415 | 12.22° C | 82% | 1020.8 hPa | 0 mm | - | 0 W/m² | - |
| 1777794111 | 12.78° C | 81% | 1021 hPa | 0 mm | - | 0 W/m² | - |
| 1777793808 | 12.78° C | 81% | 1020.8 hPa | 0 mm | - | 0 W/m² | - |
| 1777793506 | 12.78° C | 81% | 1021.1 hPa | 0 mm | - | 0 W/m² | - |
| 1777793204 | 12.78° C | 81% | 1021.2 hPa | 0 mm | - | 0 W/m² | - |
| 1777792900 | 12.78° C | 80% | 1021.2 hPa | 0 mm | - | 0 W/m² | - |
| 1777792597 | 12.78° C | 79% | 1021.3 hPa | 0 mm | - | 0 W/m² | - |
| 1777792294 | 13.33° C | 79% | 1021.1 hPa | 0 mm | - | 0 W/m² | - |
| 1777791991 | 13.33° C | 79% | 1021.3 hPa | 0 mm | - | 0 W/m² | - |
| 1777791689 | 13.33° C | 77% | 1021.2 hPa | 0 mm | - | 0 W/m² | - |
| 1777791386 | 13.89° C | 74% | 1021.3 hPa | 0 mm | - | 0 W/m² | - |
| 1777791084 | 14.44° C | 73% | 1021.4 hPa | 0 mm | - | 0 W/m² | - |
| 1777790781 | 14.44° C | 72% | 1021.4 hPa | 0 mm | - | 0 W/m² | - |
| 1777790478 | 14.44° C | 72% | 1021.5 hPa | 0 mm | - | 0 W/m² | - |
| 1777790175 | 14.44° C | 72% | 1021.5 hPa | 0 mm | - | 0 W/m² | - |
| 1777789873 | 14.44° C | 71% | 1021.2 hPa | 0 mm | - | 0 W/m² | - |
| 1777789572 | 14.44° C | 71% | 1021.3 hPa | 0 mm | - | 0 W/m² | - |
| 1777789270 | 14.44° C | 72% | 1021.2 hPa | 0 mm | - | 0 W/m² | - |
| 1777788966 | 15° C | 72% | 1021.2 hPa | 0 mm | - | 0 W/m² | - |
* Rain latest hour (hover to see other rain measurements)
** Current wind speed in m/s (hover to see current wind gust speed)